Погода в Рыбинске

Хотите узнать прогноз погоды в Рыбинске? Тогда Вам сюда: Погода в Рыбинске

Поиск расширенной информации на нашем сайте:

Полезная информация:

Новости сайта



02.01.2020
Опубликован Долгосрочный прогноз погоды по городам России и ближнего зарубежья на январь 2020 года.
Карты: Прогноз на январь и февраль 2020 года, Сравнение прогнозируемой аномалии приземной температуры воздуха на январь 2020 года по разным моделям.




Погода в Рыбинске - сегодня

Время (UTC), дата Ветер
(°,м/с) 
Видим.   Явления Облачность Т
(°С)
Тd
(°С)
f(%) Тe
(°С)
Pmin
(гПа)
dP
(гПа)
Po
(мм)
O2
(г/м3)
Тmin Tmax R s Состояние
почвы
09 19.09.20 310 (СЗ) 10 км    6/6 600 м 
[Sc]
+11.9 +7.2 73 +12  1007.6  0.9  746  287           
12 19.09.20 290 (З) 2{11}  10 км    6/6 600 м 
[Cu med, cong]
+13 +5.8 62 +13  1017.3  -0.3  746  286           
15 19.09.20 290 (З) 10 км    3/3 600 м 
[Cu med, cong]
+11.7 +4.4 61 +12  1007.3  -0.1  746  288    +14.2  0.7     
18 19.09.20 310 (СЗ) 3{11}  10 км  {ливн. осадки}  8/8 300 м 
[Sc]
+9.9 +4.5 69 +9  1008.3  0.9  747  290           
21 19.09.20 290 (З) 3{13}  10 км  {ливн. осадки}  8/8 300 м 
[Sc]
+8.4 +5.5 82 +8  1008.8  0.4  747  291           
00 20.09.20 320 (СЗ) 3{11}  10 км  {ливн. осадки}  3/3 600 м 
[Sc]
+8.1 +4.7 79 +7  1009.4  0.7  748  292           
03 20.09.20 310 (СЗ) 4-10{10}  10 км    10/10 300 м 
[Sc]
+8.2 +4.7 79 +7  1010.4  0.9  748  292  +7.8    0.0    мокрая 
06 20.09.20 300 (СЗ) 3{11}  10 км    10/10 600 м 
[Cu med, cong]
+8.1 +4.9 80 +7  1012.2  1.8  750  293  +7.2         
09 20.09.20 310 (СЗ) 4-12{12}  10 км    10/10 600 м 
[Cu med, cong]
+10.1 +3.8 65 +9  1013.1  750  291           
12 20.09.20 310 (СЗ) 4{12}  10 км    4/4 600 м 
[Cu med, cong]
+11.6 +2.3 53 +11  1013.8  0.7  751  290           
15 20.09.20 290 (З) 2{10}  10 км    6/6 600 м 
[Cu med, cong]
+10.6 +2.2 56 +11  1014.4  0.6  751  291    +11.7       
18 20.09.20 270 (З) 10 км    10/10 2000 м 
[Ns]
+8.7 +2.8 66 +9  1014.9  0.4  752  293           
21 20.09.20 260 (З) 10 км    10/10 2000 м 
[Ns]
+8.1 +3 70 +7  1013.3  -1.6  750  293           
00 21.09.20 260 (З) 10 км    8/0 средняя 
[As trans]
+8 +4.2 77 +7  1011.6  -1.8  749  293           
03 21.09.20 260 (З) 10 км    10/10 300 м 
[Sc]
+7.9 +5.2 83 +8  1009.7  -1.7  748  292  +7.7        мокрая 
06 21.09.20 260 (З) 4000 м  слаб. ливневой дождь  10/10 300 м кучево-дожд. 
[Cb cap]
+8.9 +6.7 86 +8  1008.9  -0.8  747  290           
09 21.09.20 270 (З) 10 км  {ливн. осадки}  10/10 300 м 
[Sc]
+10.8 +7.8 82 +10  1009  0.2  747  288           
12 21.09.20 270 (З) 3{10}  10 км  в посл. час ливневой дождь  10/10 300 м кучево-дожд. 
[Cb calv]
+11.6 +9.2 85 +11  1010  748  287           
15 21.09.20 270 (З) 10 км    10/10 300 м 
[Sc]
+11 +7.5 79 +11  1010.9  0.8  749  289    +12  0.6     
18 21.09.20 260 (З) 10 км    8/8 2000 м средняя 
[Ac trans]
+10.4 +8.8 90 +11  1010.8  -0.1  749  289           
21 21.09.20 260 (З) 10 км    8/8 2000 м средняя 
[Ac trans]
+10.6 +8.7 88 +10  1009.7  -1  748  289           
00 22.09.20 240 (ЮЗ) 10 км    6/6 2000 м средняя 
[Ac trans]
+10.6 +9 90 +12  1007.9  -1.8  746  288           
03 22.09.20 250 (З) 10 км    10/10 300 м 
[Sc]
+11.4 +9.5 88 +13  1006.2  -1.7  745  287  +10.2        мокрая 
06 22.09.20 260 (З) 10 км    10/10 2000 м 
[Ac und]
+12.6 +9.2 80 +13  1006  -0.1  745  285           
09 22.09.20 270 (З) 2{11}  10 км    10/10 300 м 
[Sc]
+14 +9.8 76 +16  1006.6  0.6  746  284           
Время (UTC), дата Ветер
(°,м/с) 
Видим.   Явления Облачность Т
(°С)
Тd
(°С)
f(%) Тe
(°С)
Pmin
(гПа)
dP
(гПа)
Po
(мм)
O2
(г/м3)
Тmin Tmax R s Состояние
почвы

Для получения пояснительной информации подведите курсор к названию столбца.

ПОГОДА в Рыбинске - архив

Всё, что Вы хотите узнать о погоде в Рыбинске - удобно и подробно!

Выберите нужную дату (начиная с 1 января 2019* года) и нажмите кнопку "Найти".
Будут отображены архивные сводки погоды по пункту Рыбинск, начиная с указанной даты.


Отображать данные в формате CSV (для использования в таблицах Excel)


Внимание! Наш архив погоды предназначен исключительно для личного некоммерческого использования в познавательных целях. Если Вам необходимы официальные справки о состоянии погоды (для производственных, юридических, коммерческих и т.п. целей), обращайтесь в органы Росгидромета.

*Примечание: данная дата относится к архиву по метеостанциям СССР (Россия, СНГ, Балтия).
Архив по метеостанциям Зарубежной Европы и Азии (кроме Китая) хранится 10 дней, по другим регионам земного шара (Китай, Африка, Америка, Австралия, Океания) - 1 день.

Рыбинск - район местоположения метеостанции


Название, широта, долгота, высота метеостанции:
Рыбинск 58.1°ш. 38.7°д. 105 м над ур. моря [Российская Федерация]

Дополнительная информация

В oтличие oт бoльшинства пoгoдных сайтoв мы публикуем пoдрoбную метеoинфoрмацию в детальнoм прoфессиoнальнoм фoрмате.

Характеристики температуры и влажнoсти вoздуха измеряются на высoте 2 м в тени вдали oт зданий и деревьев.
Скoрoсть ветра измеряется на высoте 10 м (на урoвне рoста челoвека скoрoсть ветра ниже в 1.5-2 раза). Если метеoстанция нахoдится в гoрoде или в лесу, тo скoрoсть ветра занижена на 2-4 м/с пo сравнению с oткрытым местoм. Скoрoсть ветра над акватoриями крупных рек и oзёр, а также на вершинах хoлмoв на 2-5 м/с выше, чем в oбычных услoвиях.
Атмoсфернoе давление в разных тoчках местнoсти мoжет значительнo oтличаться oт давления на метеoстанции, в зависимoсти oт услoвий рельефа (при пoдъёме на 10 м давление пoнижается примернo на 1 мм рт.ст.).